Location: �terpigny
(49.8910°N, 2.9249°E)
Time: 05:29:47
(UTC+00:00)

Cosmos 614 Rocket - Pass Details

Date: 03 June 2022
Orbit: 732 x 764 km, 74.1° (Epoch: 06 July)

Event Time Altitude Azimuth Distance (km) Brightness Sun altitude
Rises 01:14:14 0° 330° (NNW) 3,225 7.8 -15.2°
Reaches altitude 10° 01:16:46 10° 322° (NW) 2,300 6.9 -15.1°
Maximum altitude 01:21:28 35° 257° (WSW) 1,214 4.7 -14.8°
Enters shadow 01:23:58 23° 209° (SSW) 1,599 5.0 -14.6°
